EW3994 Weather Reports


Display with metric or nautical units.
time (UTC)temp
F
wind
direction
speed
MPH
gust
MPH
rain 1hr
in
rain 24hr
in
rain mn
in
humidity
%
barometer
mb
20260903043046 61 238 9.0 14.0 0.00 0.02 0.02 53 1018.1
20260903042145 62 246 8.0 14.0 0.00 0.02 0.02 53 1018.1
20260903041245 62 239 7.0 13.0 0.00 0.02 0.02 54 1018.0
20260903040345 62 241 7.0 13.0 0.00 0.02 0.02 52 1018.1
20260903035446 62 240 8.0 14.0 0.00 0.02 0.02 54 1018.1
20260903034546 62 236 8.0 15.0 0.00 0.02 0.02 55 1018.0
20260903033646 62 255 9.0 15.0 0.00 0.02 0.02 55 1018.1
20260903032746 62 243 7.0 13.0 0.00 0.02 0.02 55 1018.1
20260903031845 61 251 8.0 14.0 0.00 0.02 0.02 57 1018.2
20260903030946 62 240 8.0 14.0 0.00 0.02 0.02 56 1018.1
20260903030046 63 226 7.0 13.0 0.00 0.02 0.02 57 1018.1
20260903025145 61 216 7.0 13.0 0.00 0.02 0.02 58 1018.1
20260903024245 61 220 7.0 12.0 0.00 0.02 0.02 58 1018.2
20260903023345 60 228 8.0 17.0 0.00 0.02 0.02 59 1018.3
20260903022445 61 229 8.0 17.0 0.01 0.02 0.02 59 1018.2
20260903021546 62 232 6.0 12.0 0.02 0.02 0.02 62 1018.2
20260903020645 60 245 6.0 11.0 0.02 0.02 0.02 63 1018.2
20260903015745 60 245 6.0 12.0 0.02 0.02 0.02 64 1018.3
20260903014845 60 253 5.0 12.0 0.02 0.02 0.02 65 1018.2
20260903013945 59 253 6.0 12.0 0.02 0.02 0.02 65 1018.2
20260903013045 58 263 8.0 14.0 0.02 0.02 0.02 64 1018.2
20260903010345 60 287 10.0 18.0 0.00 0.00 0.00 60 1018.0
20260903005445 59 285 11.0 19.0 0.00 0.00 0.00 60 1018.0
20260903003645 59 279 11.0 18.0 0.00 0.00 0.00 61 1017.9
20260903002745 59 283 9.0 16.0 0.00 0.00 0.00 61 1018.0
20260903001845 59 289 9.0 15.0 0.00 0.00 0.00 61 1018.0
20260903000945 58 290 8.0 14.0 0.00 0.00 0.00 62 1018.0
20260903000045 58 290 9.0 16.0 0.00 0.00 0.00 61 1018.0
20260902235145 58 287 8.0 16.0 0.00 0.00 0.00 61 1018.0
20260902234245 58 293 8.0 13.0 0.00 0.00 0.00 62 1017.8
20260902233345 58 287 9.0 15.0 0.00 0.00 0.00 62 1017.7
20260902232445 58 292 8.0 20.0 0.00 0.00 0.00 62 1017.8
20260902231546 57 298 8.0 14.0 0.00 0.00 0.00 63 1017.7
20260902230645 57 296 7.0 14.0 0.00 0.00 0.00 63 1017.5
20260902225745 57 299 6.0 14.0 0.00 0.00 0.00 63 1017.5
20260902224845 56 320 4.0 9.0 0.00 0.00 0.00 63 1017.5
20260902223945 55 330 4.0 9.0 0.00 0.00 0.00 64 1017.3
20260902222145 54 344 3.0 6.0 0.00 0.00 0.00 64 1016.9
20260902221246 54 341 2.0 5.0 0.00 0.00 0.00 63 1016.8
20260902220345 55 351 3.0 6.0 0.00 0.00 0.00 63 1016.6
20260902215445 56 302 4.0 9.0 0.00 0.00 0.00 63 1016.6
20260902212745 55 296 5.0 11.0 0.00 0.00 0.00 64 1016.3
20260902211845 55 297 5.0 10.0 0.00 0.00 0.00 64 1016.3
20260902210944 55 292 5.0 12.0 0.00 0.00 0.00 64 1016.0
20260902210044 55 298 7.0 12.0 0.00 0.00 0.00 64 1016.0
20260902205145 55 291 6.0 13.0 0.00 0.00 0.00 64 1016.0
20260902204245 55 299 6.0 11.0 0.00 0.00 0.00 64 1015.8
20260902202444 55 295 8.0 14.0 0.00 0.00 0.00 64 1015.7
20260902200644 55 291 8.0 17.0 0.00 0.00 0.00 63 1015.6
20260902195745 55 297 7.0 13.0 0.00 0.00 0.00 63 1015.4
20260902194846 55 291 7.0 12.0 0.00 0.00 0.00 63 1015.4
20260902193944 55 291 7.0 14.0 0.00 0.00 0.00 63 1015.2
20260902193044 55 288 8.0 13.0 0.00 0.00 0.00 62 1015.2
20260902192144 55 284 7.0 13.0 0.00 0.00 0.00 62 1015.1
20260902191244 55 289 7.0 14.0 0.00 0.00 0.00 62 1015.0
20260902190344 55 298 7.0 13.0 0.00 0.00 0.00 62 1014.9
20260902184544 55 283 7.0 14.0 0.00 0.00 0.00 61 1014.8
20260902183644 56 285 8.0 13.0 0.00 0.00 0.00 61 1014.8
20260902181844 56 289 9.0 15.0 0.00 0.00 0.00 60 1014.8
20260902180044 56 290 10.0 16.0 0.00 0.00 0.00 60 1014.7
20260902175147 56 288 8.0 16.0 0.00 0.00 0.00 60 1014.8
20260902174244 56 288 9.0 14.0 0.00 0.00 0.00 59 1014.7
20260902173344 55 294 8.0 14.0 0.00 0.00 0.00 59 1014.8
20260902172444 56 288 8.0 15.0 0.00 0.00 0.00 58 1014.8
20260902171544 56 288 7.0 14.0 0.00 0.00 0.00 58 1014.9
20260902170644 56 289 7.0 14.0 0.00 0.00 0.00 57 1014.9
20260902165744 56 295 8.0 15.0 0.00 0.00 0.00 57 1015.0
20260902163944 55 287 8.0 15.0 0.00 0.00 0.00 56 1015.1
20260902163044 55 290 8.0 12.0 0.00 0.00 0.00 56 1015.2
20260902162144 55 287 9.0 14.0 0.00 0.00 0.00 57 1015.2
20260902161244 55 283 8.0 15.0 0.00 0.00 0.00 57 1015.3
20260902160344 55 285 5.0 10.0 0.00 0.00 0.00 57 1015.4
20260902154544 55 282 8.0 14.0 0.00 0.00 0.00 56 1015.4
20260902153644 55 282 11.0 24.0 0.00 0.00 0.00 56 1015.3
20260902151844 55 284 11.0 20.0 0.00 0.00 0.00 57 1015.6
20260902150043 55 294 8.0 15.0 0.00 0.00 0.00 58 1015.5
20260902145144 55 293 7.0 15.0 0.00 0.00 0.00 58 1015.4
20260902142444 54 279 7.0 12.0 0.00 0.00 0.00 59 1015.6
20260902141543 54 275 7.0 15.0 0.00 0.00 0.00 59 1015.6
20260902140644 54 275 8.0 15.0 0.00 0.00 0.00 59 1015.7
20260902135744 54 274 8.0 14.0 0.00 0.00 0.00 60 1015.7
20260902134843 54 273 8.0 12.0 0.00 0.00 0.00 60 1015.8
20260902133945 54 277 7.0 10.0 0.00 0.00 0.00 60 1015.9
20260902133043 54 278 7.0 11.0 0.00 0.00 0.00 61 1015.8
20260902132144 54 279 7.0 13.0 0.00 0.00 0.00 61 1015.9
20260902131243 54 277 6.0 12.0 0.00 0.00 0.00 61 1016.0
20260902130343 54 276 5.0 11.0 0.00 0.00 0.00 60 1015.9
20260902125444 54 286 3.0 7.0 0.00 0.00 0.00 60 1015.9
20260902124544 54 281 3.0 6.0 0.00 0.00 0.00 60 1016.0
20260902123644 54 282 3.0 7.0 0.00 0.00 0.00 60 1016.1
20260902121843 54 284 2.0 4.0 0.00 0.00 0.00 58 1016.2
20260902120943 54 284 3.0 6.0 0.00 0.00 0.00 58 1016.2
20260902120043 54 281 2.0 6.0 0.00 0.00 0.00 58 1016.3
20260902115143 54 270 3.0 5.0 0.00 0.00 0.00 57 1016.2
20260902114243 55 257 3.0 7.0 0.00 0.00 0.00 57 1016.0
20260902113343 55 244 4.0 8.0 0.00 0.00 0.00 57 1015.9
20260902112443 55 243 8.0 16.0 0.00 0.00 0.00 57 1016.0
20260902111543 55 265 3.0 8.0 0.00 0.00 0.00 56 1015.9
20260902110644 55 281 5.0 10.0 0.00 0.00 0.00 56 1015.8
20260902104843 56 270 5.0 10.0 0.00 0.00 0.00 55 1015.7
20260902103943 56 264 7.0 13.0 0.00 0.00 0.00 54 1015.7
20260902103043 56 268 11.0 19.0 0.00 0.00 0.00 54 1015.6
20260902102143 56 286 10.0 19.0 0.00 0.00 0.00 52 1015.3
20260902101243 56 288 7.0 13.0 0.00 0.00 0.00 52 1015.3
20260902100343 56 291 6.0 11.0 0.00 0.00 0.00 51 1015.3
20260902095443 56 294 6.0 11.0 0.00 0.00 0.00 50 1015.2
20260902094545 56 290 5.0 10.0 0.00 0.00 0.00 49 1015.1
20260902093644 56 280 6.0 13.0 0.00 0.00 0.00 48 1015.0
20260902092743 56 281 7.0 12.0 0.00 0.00 0.00 50 1014.9
20260902091843 56 278 6.0 11.0 0.00 0.00 0.00 50 1014.8
20260902090943 56 282 5.0 10.0 0.00 0.00 0.00 52 1014.7
20260902085143 56 280 7.0 13.0 0.00 0.00 0.00 51 1014.7
20260902084243 56 281 7.0 12.0 0.00 0.00 0.00 51 1014.7
20260902083343 56 281 7.0 13.0 0.00 0.00 0.00 50 1014.5
20260902082443 56 283 7.0 12.0 0.00 0.00 0.00 50 1014.4
20260902081543 56 288 7.0 13.0 0.00 0.00 0.00 51 1014.3
20260902080644 56 288 7.0 14.0 0.00 0.00 0.00 51 1014.3
20260902075743 57 283 8.0 14.0 0.00 0.00 0.00 50 1014.3
20260902074843 57 291 7.0 14.0 0.00 0.00 0.00 50 1014.3
20260902073042 57 296 6.0 10.0 0.00 0.00 0.00 51 1014.2
20260902071242 57 296 6.0 10.0 0.00 0.00 0.00 51 1014.4
20260902070343 58 294 5.0 9.0 0.00 0.01 0.00 51 1014.4
20260902065443 58 293 5.0 12.0 0.00 0.02 0.00 50 1014.4
20260902064543 58 291 4.0 9.0 0.00 0.03 0.00 51 1014.3
20260902063646 58 272 6.0 13.0 0.00 0.04 0.00 50 1014.4
20260902062743 58 273 4.0 13.0 0.00 0.06 0.00 50 1014.3
20260902061843 58 270 6.0 12.0 0.00 0.06 0.00 49 1014.4
20260902060043 58 285 5.0 9.0 0.00 0.09 0.00 48 1014.4
20260902055142 59 273 5.0 9.0 0.00 0.09 0.00 49 1014.4
20260902054242 60 267 5.0 11.0 0.00 0.09 0.00 48 1014.4
20260902052442 59 273 5.0 11.0 0.00 0.09 0.00 46 1014.5
20260902050642 60 283 4.0 10.0 0.00 0.09 0.00 46 1014.6
20260902045742 60 261 4.0 10.0 0.00 0.09 0.00 46 1014.6
20260902044842 60 264 4.0 10.0 0.00 0.09 0.00 46 1014.7
20260902043944 60 257 7.0 11.0 0.00 0.09 0.00 46 1014.7